This demonstration page uses our WeatherBlox Daily Observations layout. Learn more.

Hourly Observations for May 24, 2019

Temp ( °F °C ) Dew Point ( °F °C ) Humidity (%) Winds ( mph kmh ) Pressure ( in mb ) Visibility ( mi km ) Precip ( " mm )
12:15 am 00:15 Clear 70 21 68 20 94 94 WSW 7 11 29.97 1015 10 16.09344 0 0
12:35 am 00:35 Clear 72 22 66 19 83 83 W 8 13 29.94 1014 10 16.09344 0 0
12:55 am 00:55 Clear 73 23 66 19 78 78 W 13 20 29.94 1014 10 16.09344 0 0
1:15 am 01:15 Clear 75 24 66 19 74 74 W 14 22 29.94 1014 10 16.09344 0 0
1:35 am 01:35 Clear 77 25 66 19 69 69 W 9 15 29.94 1014 10 16.09344 0 0
1:55 am 01:55 Clear 75 24 66 19 74 74 W 9 15 29.94 1014 10 16.09344 0 0
2:15 am 02:15 Clear 77 25 66 19 69 69 WNW 8 13 29.94 1014 10 16.09344 0 0
2:35 am 02:35 Clear 77 25 66 19 69 69 WNW 7 11 29.94 1014 10 16.09344 0 0
2:55 am 02:55 Clear 77 25 66 19 69 69 NW 10 17 29.94 1014 10 16.09344 0 0
3:15 am 03:15 Clear 77 25 66 19 69 69 NW 8 13 29.94 1014 10 16.09344 0 0
3:35 am 03:35 Clear 77 25 66 19 69 69 WNW 8 13 29.94 1014 10 16.09344 0 0
3:55 am 03:55 Clear 77 25 66 19 69 69 WNW 10 17 29.94 1014 10 16.09344 0 0
4:15 am 04:15 Clear 77 25 68 20 74 74 WNW 12 19 29.94 1014 10 16.09344 0 0
4:35 am 04:35 Clear 77 25 66 19 69 69 WNW 12 19 29.94 1014 10 16.09344 0 0
4:55 am 04:55 Partly Cloudy 75 24 68 20 78 78 N 6 9 29.97 1015 10 16.09344 0 0
5:15 am 05:15 Mostly Cloudy 75 24 66 19 74 74 N 17 28 29.97 1015 10 16.09344 0 0
5:35 am 05:35 Partly Cloudy 73 23 63 17 69 69 N 9 15 30 1016 10 16.09344 0 0
5:55 am 05:55 Sunny 72 22 61 16 69 69 NNW 12 19 30 1016 10 16.09344 0 0
6:15 am 06:15 Sunny 72 22 59 15 65 65 NNW 14 22 30 1016 10 16.09344 0 0
6:35 am 06:35 Sunny 72 22 57 14 61 61 NNW 13 20 30.03 1017 10 16.09344 0 0
6:55 am 06:55 Sunny 70 21 55 13 60 60 NNW 14 22 30.03 1017 10 16.09344 0 0
7:15 am 07:15 Sunny 70 21 55 13 60 60 NNW 15 24 30.03 1017 10 16.09344 0 0
7:35 am 07:35 Sunny 72 22 55 13 57 57 N 10 17 30.06 1018 10 16.09344 0 0
7:55 am 07:55 Sunny 72 22 55 13 57 57 N 12 19 30.06 1018 10 16.09344 0 0
8:15 am 08:15 Sunny 72 22 54 12 53 53 N 14 22 30.06 1018 10 16.09344 0 0
8:35 am 08:35 Sunny 72 22 55 13 57 57 N 12 19 30.06 1018 10 16.09344 0 0
8:55 am 08:55 Sunny 72 22 55 13 57 57 N 10 17 30.06 1018 10 16.09344 0 0
9:15 am 09:15 Sunny 72 22 55 13 57 57 N 9 15 30.09 1019 10 16.09344 0 0
9:35 am 09:35 Sunny 72 22 55 13 57 57 N 13 20 30.09 1019 10 16.09344 0 0
9:55 am 09:55 Sunny 72 22 55 13 57 57 N 13 20 30.09 1019 10 16.09344 0 0
10:15 am 10:15 Sunny 73 23 55 13 53 53 N 9 15 30.09 1019 10 16.09344 0 0
10:35 am 10:35 Sunny 73 23 55 13 53 53 NNW 9 15 30.09 1019 10 16.09344 0 0
10:55 am 10:55 Sunny 73 23 55 13 53 53 NNW 12 19 30.09 1019 10 16.09344 0 0
11:15 am 11:15 Sunny 73 23 55 13 53 53 N 12 19 30.09 1019 10 16.09344 0 0
11:35 am 11:35 Sunny 75 24 55 13 50 50 N 10 17 30.09 1019 10 16.09344 0 0
11:55 am 11:55 Sunny 77 25 55 13 47 47 N 16 26 30.09 1019 10 16.09344 0 0
12:15 pm 12:15 Sunny 77 25 55 13 47 47 NNW 17 28 30.09 1019 10 16.09344 0 0
12:35 pm 12:35 Sunny 77 25 55 13 47 47 NNW 14 22 30.09 1019 10 16.09344 0 0
12:55 pm 12:55 Sunny 79 26 57 14 48 48 NW 16 26 30.06 1018 10 16.09344 0 0
1:15 pm 13:15 Sunny 79 26 55 13 45 45 N 13 20 30.06 1018 10 16.09344 0 0
1:35 pm 13:35 Sunny 79 26 55 13 45 45 NNW 17 28 30.06 1018 10 16.09344 0 0
1:55 pm 13:55 Sunny 81 27 55 13 42 42 NNW 14 22 30.06 1018 10 16.09344 0 0
2:15 pm 14:15 Sunny 81 27 55 13 42 42 NNW 14 22 30.06 1018 10 16.09344 0 0
2:35 pm 14:35 Sunny 81 27 54 12 39 39 N 16 26 30.06 1018 10 16.09344 0 0
2:55 pm 14:55 Sunny 82 28 55 13 40 40 NW 15 24 30.06 1018 10 16.09344 0 0
3:15 pm 15:15 Sunny 82 28 55 13 40 40 NW 9 15 30.06 1018 10 16.09344 0 0
3:35 pm 15:35 Sunny 82 28 54 12 37 37 N 9 15 30.03 1017 10 16.09344 0 0
3:55 pm 15:55 Sunny 82 28 55 13 40 40 N 8 13 30.06 1018 10 16.09344 0 0
4:15 pm 16:15 Sunny 82 28 55 13 40 40 N 6 9 30.06 1018 10 16.09344 0 0
4:35 pm 16:35 Sunny 82 28 55 13 40 40 NNE 9 15 30.06 1018 10 16.09344 0 0
4:55 pm 16:55 Sunny 82 28 54 12 37 37 NNE 8 13 30.06 1018 10 16.09344 0 0
5:15 pm 17:15 Sunny 82 28 55 13 40 40 NNE 8 13 30.06 1018 10 16.09344 0 0
5:35 pm 17:35 Sunny 82 28 55 13 40 40 N 9 15 30.06 1018 10 16.09344 0 0
5:55 pm 17:55 Sunny 82 28 55 13 40 40 N 12 19 30.06 1018 10 16.09344 0 0
6:15 pm 18:15 Partly Cloudy 82 28 55 13 40 40 N 8 13 30.06 1018 10 16.09344 0 0
6:35 pm 18:35 Partly Cloudy 82 28 55 13 40 40 NNE 9 15 30.09 1019 10 16.09344 0 0
6:55 pm 18:55 Partly Cloudy 81 27 55 13 42 42 NNE 7 11 30.09 1019 10 16.09344 0 0
7:15 pm 19:15 Partly Cloudy 81 27 55 13 42 42 NNE 7 11 30.09 1019 10 16.09344 0 0
7:35 pm 19:35 Sunny 81 27 55 13 42 42 NNE 6 9 30.09 1019 10 16.09344 0 0
7:55 pm 19:55 Sunny 79 26 55 13 45 45 NNE 6 9 30.09 1019 10 16.09344 0 0
8:15 pm 20:15 Sunny 79 26 55 13 45 45 NNE 6 9 30.09 1019 10 16.09344 0 0
8:35 pm 20:35 Clear 77 25 55 13 47 47 undefined N/A 30.09 1019 10 16.09344 0 0
8:55 pm 20:55 Partly Cloudy 77 25 55 13 47 47 NNE 5 7 30.09 1019 10 16.09344 0 0
9:15 pm 21:15 Partly Cloudy 73 23 55 13 53 53 Calm 30.09 1019 10 16.09344 0 0
9:35 pm 21:35 Clear 72 22 59 15 65 65 Calm 30.12 1020 10 16.09344 0 0
9:55 pm 21:55 Mostly Cloudy 72 22 59 15 65 65 Calm 30.12 1020 10 16.09344 0 0
10:15 pm 22:15 Partly Cloudy 68 20 61 16 78 78 Calm 30.12 1020 10 16.09344 0 0
10:35 pm 22:35 Clear 70 21 59 15 69 69 Calm 30.12 1020 10 16.09344 0 0
10:55 pm 22:55 Clear 68 20 61 16 78 78 Calm 30.12 1020 10 16.09344 0 0
11:15 pm 23:15 Partly Cloudy 68 20 61 16 78 78 Calm 30.12 1020 10 16.09344 0 0
11:35 pm 23:35 Clear 68 20 59 15 73 73 Calm 30.12 1020 10 16.09344 0 0
11:55 pm 23:55 Clear 64 18 61 16 88 88 Calm 30.12 1020 10 16.09344 0 0

Powered by AerisWeather